| time (UTC) | temp F | wind direction | speed MPH | gust MPH | rain 1hr in | rain 24hr in | rain mn in | humidity % | barometer mb |
| 20260504044538 | 56 | 23 | 1.0 | 10.0 | 0.00 | 0.21 | 0.20 | 90 | 1013.1 |
| 20260504043041 | 56 | 318 | 2.0 | 10.0 | 0.01 | 0.21 | 0.20 | 91 | 1013.3 |
| 20260504041535 | 57 | 308 | 2.0 | 11.0 | 0.01 | 0.21 | 0.20 | 92 | 1013.1 |
| 20260504040034 | 57 | 320 | 3.0 | 11.0 | 0.01 | 0.21 | 0.20 | 91 | 1013.1 |
| 20260504034531 | 58 | 331 | 3.0 | 9.0 | 0.01 | 0.21 | 0.20 | 90 | 1013.0 |
| 20260504033029 | 58 | 333 | 4.0 | 13.0 | 0.00 | 0.20 | 0.20 | 89 | 1013.0 |
| 20260504031528 | 59 | 348 | 8.0 | 15.0 | 0.00 | 0.20 | 0.20 | 88 | 1012.8 |
| 20260504030027 | 59 | 313 | 7.0 | 13.0 | 0.00 | 0.20 | 0.20 | 89 | 1012.9 |
| 20260504024526 | 59 | 329 | 5.0 | 15.0 | 0.00 | 0.20 | 0.20 | 91 | 1012.9 |
| 20260504023025 | 59 | 273 | 4.0 | 11.0 | 0.01 | 0.20 | 0.20 | 92 | 1013.3 |
| 20260504021521 | 59 | 347 | 5.0 | 10.0 | 0.02 | 0.20 | 0.20 | 93 | 1013.6 |
| 20260504020021 | 59 | 360 | 2.0 | 13.0 | 0.02 | 0.20 | 0.20 | 93 | 1013.8 |
| 20260504014525 | 59 | 355 | 3.0 | 12.0 | 0.02 | 0.20 | 0.20 | 92 | 1013.9 |
| 20260504013018 | 59 | 314 | 3.0 | 14.0 | 0.00 | 0.19 | 0.18 | 91 | 1014.2 |
| 20260504011517 | 60 | 342 | 4.0 | 13.0 | 0.02 | 0.19 | 0.18 | 90 | 1014.3 |
| 20260504010016 | 59 | 22 | 4.0 | 15.0 | 0.02 | 0.19 | 0.18 | 91 | 1014.3 |
| 20260504004520 | 59 | 311 | 2.0 | 14.0 | 0.02 | 0.19 | 0.18 | 91 | 1014.6 |
| 20260504003015 | 59 | 314 | 7.0 | 17.0 | 0.02 | 0.19 | 0.18 | 90 | 1014.7 |
| 20260504001514 | 59 | 5 | 6.0 | 16.0 | 0.01 | 0.17 | 0.17 | 91 | 1014.7 |
| 20260504000013 | 59 | 331 | 6.0 | 13.0 | 0.01 | 0.17 | 0.17 | 92 | 1014.5 |
| 20260503234512 | 59 | 5 | 2.0 | 13.0 | 0.02 | 0.17 | 0.17 | 93 | 1014.5 |
| 20260503233017 | 59 | 350 | 7.0 | 16.0 | 0.05 | 0.17 | 0.16 | 93 | 1014.5 |
| 20260503231510 | 59 | 355 | 2.0 | 14.0 | 0.05 | 0.17 | 0.16 | 94 | 1014.6 |
| 20260503230010 | 59 | 338 | 2.0 | 9.0 | 0.05 | 0.17 | 0.16 | 94 | 1014.7 |
| 20260503224509 | 59 | 5 | 1.0 | 10.0 | 0.04 | 0.16 | 0.15 | 94 | 1014.7 |
| 20260503223007 | 0 | 0.0 | 0.0 | 0.00 | 0.12 | 0.11 | 1014.6 | ||
| 20260503221501 | 0 | 0.0 | 0.0 | 0.00 | 0.12 | 0.11 | 1014.7 | ||
| 20260503220100 | 0 | 0.0 | 0.0 | 0.00 | 0.12 | 0.11 | 1014.7 | ||
| 20260503214555 | 0 | 0.0 | 0.0 | 0.00 | 0.12 | 0.11 | 1014.6 | ||
| 20260503213051 | 0 | 0.0 | 0.0 | 0.00 | 0.12 | 0.11 | 1014.5 | ||
| 20260503211546 | 0 | 0.0 | 0.0 | 0.00 | 0.12 | 0.11 | 1014.5 | ||
| 20260503210042 | 0 | 0.0 | 0.0 | 0.00 | 0.12 | 0.11 | 1014.4 | ||
| 20260503204539 | 0 | 0.0 | 0.0 | 0.00 | 0.12 | 0.11 | 1014.2 | ||
| 20260503203042 | 0 | 0.0 | 0.0 | 0.00 | 0.12 | 0.11 | 1014.0 | ||
| 20260503201529 | 0 | 0.0 | 0.0 | 0.00 | 0.12 | 0.11 | 1014.0 | ||
| 20260503200024 | 0 | 0.0 | 0.0 | 0.00 | 0.12 | 0.11 | 1014.0 | ||
| 20260503194522 | 0 | 0.0 | 0.0 | 0.01 | 0.12 | 0.11 | 1014.0 | ||
| 20260503193016 | 0 | 0.0 | 0.0 | 0.02 | 0.12 | 0.11 | 1014.0 | ||
| 20260503191510 | 0 | 0.0 | 0.0 | 0.02 | 0.12 | 0.11 | 1014.2 | ||
| 20260503190008 | 0 | 0.0 | 0.0 | 0.02 | 0.12 | 0.11 | 1014.4 | ||
| 20260503184510 | 58 | 20 | 0.0 | 0.0 | 0.00 | 0.10 | 0.09 | 94 | 1014.5 |
| 20260503183002 | 58 | 20 | 0.0 | 0.0 | 0.00 | 0.10 | 0.09 | 94 | 1014.7 |
| 20260503181559 | 58 | 20 | 0.0 | 1.0 | 0.01 | 0.10 | 0.09 | 94 | 1014.8 |
| 20260503181503 | 58 | 20 | 0.0 | 1.0 | 0.02 | 0.10 | 0.09 | 94 | 1014.8 |
| 20260503180107 | 58 | 20 | 0.0 | 3.0 | 0.02 | 0.10 | 0.09 | 94 | 1014.9 |
| 20260503180000 | 58 | 20 | 0.0 | 3.0 | 0.02 | 0.10 | 0.09 | 94 | 1014.8 |
| 20260503174601 | 58 | 21 | 1.0 | 6.0 | 0.02 | 0.10 | 0.09 | 94 | 1014.7 |
| 20260503173109 | 58 | 5 | 1.0 | 6.0 | 0.02 | 0.10 | 0.09 | 93 | 1014.8 |
| 20260503171555 | 58 | 351 | 1.0 | 6.0 | 0.02 | 0.09 | 0.09 | 93 | 1015.0 |
| 20260503170122 | 58 | 27 | 0.0 | 3.0 | 0.01 | 0.08 | 0.07 | 93 | 1015.4 |
| 20260503081521 | 63 | 297 | 0.0 | 0.0 | 0.00 | 0.00 | 0.00 | 81 | 1017.2 |
| 20260503071519 | 65 | 298 | 0.0 | 5.0 | 0.00 | 0.00 | 0.00 | 76 | 1016.2 |